[[{"header":{"parameterUnit":"m.s-1","parameterCategory":1,"la1":30.2991,"la2":30.254,"lo1":-89.0895,"lo2":-89.0444,"dy":0.0017,"dx":0.0017,"nx":28,"ny":28,"refTime":"2024-03-18T09:00:00:Z","depth":0,"parameterNumber":2,"parameterNumberName":"U-component_of_WINDS"},"data":[0,0,0,0,0,0,0,0,0,0,0,0,0,0,0,0,0,0,0,0,0,0,0,0,0,0,0,0,0,0,0,0,0,0,0,0,0,0,0,0,0,0,0,0,0,0,0,0,0,0,0,0,0,0,0,0,0,0,2.0921,2.0922,0,2.0944,2.0944,2.0944,2.0967,2.0968,2.0968,2.0968,2.0989,2.0989,2.099,0,0,0,0,0,0,0,0,0,0,0,0,0,2.0897,2.0897,2.0921,2.0922,2.0922,2.0944,2.0944,2.0944,2.0967,2.0968,2.0968,2.0968,2.0989,2.0989,2.099,0,0,0,0,0,0,0,0,0,0,0,0,0,2.0912,2.0898,2.0921,2.0936,2.0938,2.0944,2.0944,2.0945,2.0967,2.0968,2.0968,2.0969,2.0989,2.0989,2.099,2.0983,0,0,2.0991,2.0991,0,0,0,0,0,0,0,0,2.0912,2.0913,2.0934,2.0935,2.0937,2.0953,2.0943,2.0957,2.0967,2.0956,2.0968,2.0969,2.0977,2.0978,2.0981,2.0984,2.0985,2.0991,2.0991,2.0991,2.0991,0,0,0,0,0,0,0,2.091,2.0912,2.093,2.0934,2.0936,2.0941,2.0944,2.0946,2.0963,2.0957,2.0959,2.0961,2.0978,2.0981,2.0982,2.0985,2.0991,2.0991,2.0992,2.0992,2.0984,2.0983,0,0,0,0,0,0,2.0907,2.0911,2.0929,2.0931,2.0925,2.0941,2.0944,2.0947,2.0963,2.0966,2.0961,2.0962,2.098,2.0981,2.0983,2.0976,2.0991,2.0992,2.0992,2.0984,2.0983,2.0983,0,0,0,0,0,0,2.0907,2.0909,2.0929,2.0922,2.0925,2.0941,2.0945,2.0948,2.0951,2.0966,2.0969,2.0961,2.098,2.0982,2.0983,2.0977,2.0992,2.0992,2.0985,2.0984,2.0983,2.0962,0,0,0,0,0,0,2.0906,2.0908,2.0906,2.0921,2.0925,2.0928,2.0944,2.0948,2.0952,2.0954,2.0967,2.097,2.0981,2.0982,2.0983,2.0978,2.0993,2.0985,2.0984,2.0983,2.0963,2.096,2.0958,0,0,0,0,0,2.0905,2.0898,2.0906,2.0908,2.0922,2.0928,2.093,2.0944,2.0951,2.0949,2.0959,2.0969,2.0978,2.0982,2.0983,2.0978,2.0986,2.0984,2.0983,2.0964,2.0961,2.0958,0,0,0,0,0,0,2.088,2.09,2.0909,2.0907,2.0916,2.0932,2.0929,2.094,2.0946,2.0947,2.0963,2.0966,2.0965,2.0972,2.0976,2.0972,2.0983,2.0982,2.0968,2.0965,2.0963,2.096,2.0993,0,0,0,0,0,2.0875,2.0879,2.0896,2.0892,2.0897,2.0912,2.0915,2.0925,2.0934,2.0938,2.0948,2.0956,2.0961,2.0963,2.0968,2.0965,2.0968,2.0962,2.0959,2.0957,2.0956,2.0955,2.0952,2.098,2.098,2.098,0,0,2.0863,2.0875,2.0876,2.0888,2.0896,2.0899,2.0915,2.0917,2.092,2.0938,2.094,2.0948,2.0958,2.0956,2.0956,2.0962,2.0949,2.0956,2.0954,2.0954,2.0953,2.0951,2.0948,2.0979,2.0979,2.0979,0,0,2.0843,2.0853,2.0851,2.0859,2.0872,2.0882,2.0882,2.0897,2.0903,2.0905,2.092,2.0923,2.093,2.0937,2.0942,2.0927,2.0936,2.0928,2.0915,2.0913,2.0911,2.0909,2.0904,2.0902,2.0927,2.0927,2.0927,0,2.0827,2.0833,2.0849,2.0851,2.0856,2.0874,2.0873,2.088,2.0893,2.0896,2.0902,2.0913,2.0921,2.0922,2.0918,2.0921,2.0921,2.0926,2.091,2.0909,2.0907,2.0902,2.09,2.0926,2.0926,2.0926,2.0926,0,2.0812,2.0816,2.0813,2.0826,2.0831,2.0831,2.0848,2.0851,2.0861,2.0871,2.0873,2.0884,2.0892,2.0893,2.0902,2.0895,2.0898,2.0907,2.0918,2.0903,2.0898,2.0897,2.0924,2.0924,2.0925,2.0925,0,0,2.0775,2.0799,2.0798,2.0805,2.082,2.0823,2.0825,2.0834,2.0836,2.0845,2.0846,2.0853,2.0862,2.0867,2.0878,2.0877,2.0864,2.0886,2.0887,2.0881,2.0857,2.085,2.0847,2.0872,2.0871,2.0871,2.0856,0,2.0758,2.0762,2.0778,2.0777,2.0781,2.0799,2.08,2.081,2.082,2.0825,2.0835,2.084,2.0852,2.0855,2.0855,2.0866,2.0859,2.0867,2.0872,2.0872,2.0868,2.0845,2.0837,2.0822,2.0855,2.0854,2.0854,0,2.0738,2.0746,2.0746,2.0763,2.0765,2.0766,2.0776,2.078,2.0792,2.08,2.0806,2.0819,2.0821,2.0832,2.0836,2.0841,2.0844,2.085,2.085,2.085,2.0861,2.0844,2.0818,2.0815,2.0851,2.0852,2.0852,0,2.0711,2.0723,2.0724,2.0729,2.0749,2.0749,2.0758,2.077,2.0775,2.0783,2.0787,2.0795,2.0799,2.0806,2.082,2.0827,2.0822,2.0834,2.0828,2.0827,2.0824,2.0824,2.0798,2.0828,2.0828,2.0828,2.0828,0,2.0689,2.0688,2.0713,2.0713,2.0713,2.0731,2.0731,2.074,2.0752,2.0755,2.0771,2.0774,2.0793,2.0798,2.0809,2.081,2.0812,2.0818,2.0821,2.0816,2.0815,2.0817,2.0818,2.0828,2.0828,2.0828,2.0828,0,2.0658,2.0675,2.0678,2.0697,2.0702,2.0701,2.0717,2.0718,2.073,2.0734,2.0736,2.0754,2.076,2.0776,2.0786,2.0794,2.0792,2.0797,2.0788,2.0789,2.0782,2.0782,2.0755,2.0753,2.0785,2.0785,2.0784,0,2.0643,2.0643,2.0662,2.0666,2.0674,2.0679,2.0685,2.0703,2.0708,2.0722,2.0722,2.073,2.0737,2.0747,2.0761,2.0769,2.0774,2.0765,2.0775,2.0771,2.0774,2.0773,2.0773,2.0762,2.0761,2.0761,2.076,0,2.0613,2.0622,2.0629,2.064,2.0646,2.0655,2.0665,2.0667,2.0687,2.0692,2.0699,2.0705,2.0717,2.0724,2.0735,2.0743,2.0755,2.0757,2.0756,2.0751,2.0745,2.0747,2.078,2.0757,2.0758,2.0758,2.0758,2.0758,2.0589,2.059,2.0605,2.0613,2.0623,2.0632,2.0634,2.0647,2.0654,2.0665,2.0676,2.0682,2.0695,2.0711,2.0718,2.0723,2.0729,2.0727,2.0727,2.0726,2.0724,2.0745,2.0725,2.0725,2.0725,2.0726,2.0726,0,2.0561,2.0571,2.0579,2.0592,2.0599,2.0611,2.0623,2.0627,2.0633,2.0644,2.0652,2.0661,2.0669,2.0684,2.0693,2.0694,2.07,2.0696,2.0696,2.0697,2.0718,2.0718,2.0691,2.0691,2.0691,2.0691,2.0691,2.0691,2.0546,2.0549,2.056,2.0567,2.0578,2.0585,2.0591,2.06,2.0609,2.0618,2.0625,2.0636,2.0649,2.0659,2.0667,2.0672,2.0674,2.0668,2.0674,2.0692,2.0696,2.0699,2.0699,2.0668,2.0668,2.0653,2.0652,2.0652]},{"header":{"parameterUnit":"m.s-1","parameterCategory":1,"la1":30.2991,"la2":30.254,"lo1":-89.0895,"lo2":-89.0444,"dy":0.0017,"dx":0.0017,"nx":28,"ny":28,"refTime":"2024-03-18T09:00:00:Z","depth":0,"parameterNumber":3,"parameterNumberName":"V-component_of_WINDS"},"data":[0,0,0,0,0,0,0,0,0,0,0,0,0,0,0,0,0,0,0,0,0,0,0,0,0,0,0,0,0,0,0,0,0,0,0,0,0,0,0,0,0,0,0,0,0,0,0,0,0,0,0,0,0,0,0,0,0,0,-6.3925,-6.3926,0,-6.3941,-6.3942,-6.3942,-6.3916,-6.3915,-6.3914,-6.3913,-6.3926,-6.3927,-6.3929,0,0,0,0,0,0,0,0,0,0,0,0,0,-6.3871,-6.3873,-6.3925,-6.3926,-6.3926,-6.3941,-6.3942,-6.3942,-6.3916,-6.3915,-6.3914,-6.3913,-6.3926,-6.3927,-6.3929,0,0,0,0,0,0,0,0,0,0,0,0,0,-6.3892,-6.3873,-6.3925,-6.3915,-6.3914,-6.3941,-6.3942,-6.3942,-6.3916,-6.3915,-6.3914,-6.3912,-6.3925,-6.3927,-6.3929,-6.3966,0,0,-6.3934,-6.3935,0,0,0,0,0,0,0,0,-6.3891,-6.3894,-6.3916,-6.3916,-6.3915,-6.3925,-6.3927,-6.395,-6.3917,-6.3915,-6.3913,-6.3912,-6.3927,-6.3928,-6.3934,-6.3966,-6.3967,-6.3934,-6.3935,-6.3936,-6.3937,0,0,0,0,0,0,0,-6.3889,-6.3893,-6.3932,-6.3917,-6.3916,-6.3909,-6.3911,-6.3931,-6.3928,-6.3915,-6.3914,-6.3916,-6.3926,-6.3933,-6.3934,-6.3967,-6.3934,-6.3936,-6.3937,-6.3938,-6.4034,-6.4035,0,0,0,0,0,0,-6.389,-6.3892,-6.3931,-6.3932,-6.3899,-6.3911,-6.3913,-6.3923,-6.3928,-6.3927,-6.3917,-6.3915,-6.393,-6.3932,-6.3935,-6.398,-6.3936,-6.3938,-6.3939,-6.4032,-6.4034,-6.4036,0,0,0,0,0,0,-6.3888,-6.3893,-6.393,-6.3912,-6.3916,-6.3914,-6.3925,-6.3924,-6.3931,-6.3929,-6.3928,-6.3924,-6.3929,-6.3932,-6.3959,-6.398,-6.3939,-6.394,-6.4031,-6.4033,-6.4035,-6.407,0,0,0,0,0,0,-6.3887,-6.3893,-6.3907,-6.3912,-6.3917,-6.3955,-6.3927,-6.3926,-6.3934,-6.3931,-6.3936,-6.3935,-6.3928,-6.3957,-6.3961,-6.3982,-6.3941,-6.4029,-6.4032,-6.4034,-6.4067,-6.4074,-6.4079,0,0,0,0,0,-6.3885,-6.3915,-6.3908,-6.3913,-6.3935,-6.3956,-6.3959,-6.3952,-6.3936,-6.395,-6.395,-6.3935,-6.3977,-6.396,-6.3964,-6.3986,-6.4027,-6.4031,-6.4034,-6.4065,-6.4072,-6.4079,0,0,0,0,0,0,-6.391,-6.3915,-6.3907,-6.394,-6.3948,-6.3952,-6.3969,-6.3959,-6.3971,-6.3968,-6.3957,-6.3959,-6.3988,-6.399,-6.397,-6.4024,-6.4,-6.4004,-6.4021,-6.4029,-6.4034,-6.4033,-6.3943,0,0,0,0,0,-6.3919,-6.3937,-6.3941,-6.3969,-6.3974,-6.3971,-6.398,-6.3974,-6.3982,-6.3985,-6.3986,-6.3994,-6.4009,-6.4019,-6.4032,-6.4068,-6.4069,-6.4085,-6.4091,-6.4096,-6.41,-6.4121,-6.4128,-6.4047,-6.4047,-6.4047,0,0,-6.3938,-6.3944,-6.3955,-6.3974,-6.398,-6.3999,-6.3974,-6.3994,-6.4008,-6.3987,-6.4014,-6.4016,-6.4023,-6.4055,-6.4069,-6.4057,-6.4123,-6.41,-6.4104,-6.4105,-6.4125,-6.4133,-6.414,-6.4049,-6.4049,-6.4049,0,0,-6.3983,-6.3989,-6.4014,-6.4021,-6.4031,-6.403,-6.4037,-6.4043,-6.4044,-6.4071,-6.4056,-6.4073,-6.4098,-6.4105,-6.4112,-6.4164,-6.4152,-6.4169,-6.4199,-6.422,-6.4226,-6.4232,-6.4251,-6.4259,-6.4173,-6.4173,-6.4173,0,-6.4005,-6.4034,-6.4028,-6.4051,-6.406,-6.4045,-6.4071,-6.4078,-6.4091,-6.4098,-6.4085,-6.4119,-6.4123,-6.4158,-6.4171,-6.4176,-6.4184,-6.4168,-6.4226,-6.4231,-6.4236,-6.4255,-6.4263,-6.4175,-6.4175,-6.4174,-6.4174,0,-6.4061,-6.4082,-6.4101,-6.4118,-6.4129,-6.4153,-6.4151,-6.4164,-6.4158,-6.4158,-6.4187,-6.4191,-6.4207,-6.4215,-6.4208,-6.425,-6.4242,-6.4228,-6.4203,-6.4247,-6.4264,-6.4271,-6.4178,-6.4177,-6.4176,-6.4176,0,0,-6.4119,-6.4135,-6.4142,-6.4151,-6.4163,-6.4178,-6.4203,-6.422,-6.4232,-6.4242,-6.4263,-6.4287,-6.4275,-6.4283,-6.4277,-6.4295,-6.4338,-6.4278,-6.4278,-6.429,-6.4386,-6.4397,-6.4406,-6.433,-6.4332,-6.4333,-6.4386,0,-6.4165,-6.4209,-6.4206,-6.4247,-6.4267,-6.4254,-6.4276,-6.4285,-6.4287,-6.4304,-6.4305,-6.4323,-6.4305,-6.431,-6.4328,-6.4329,-6.4357,-6.4325,-6.4349,-6.435,-6.4348,-6.4415,-6.4426,-6.4476,-6.4392,-6.4394,-6.4394,0,-6.4223,-6.424,-6.4283,-6.4295,-6.4304,-6.4323,-6.434,-6.4357,-6.4368,-6.4368,-6.4379,-6.4371,-6.4396,-6.4372,-6.4407,-6.4386,-6.4396,-6.4398,-6.44,-6.4402,-6.4375,-6.4419,-6.4491,-6.4499,-6.4405,-6.4404,-6.4403,0,-6.4263,-6.4295,-6.4327,-6.4334,-6.4348,-6.4363,-6.4369,-6.438,-6.4391,-6.4406,-6.4414,-6.4431,-6.444,-6.4454,-6.4451,-6.4434,-6.4487,-6.4462,-6.4488,-6.4489,-6.45,-6.4499,-6.4575,-6.4505,-6.4505,-6.4505,-6.4505,0,-6.4315,-6.4342,-6.4345,-6.4364,-6.4395,-6.4392,-6.4423,-6.4427,-6.4438,-6.4458,-6.4447,-6.4466,-6.4461,-6.448,-6.4477,-6.4508,-6.4512,-6.4513,-6.4512,-6.4514,-6.4514,-6.452,-6.4517,-6.4507,-6.4507,-6.4506,-6.4506,0,-6.4364,-6.4367,-6.44,-6.4413,-6.4417,-6.4439,-6.445,-6.4468,-6.447,-6.4496,-6.4501,-6.4505,-6.4526,-6.4526,-6.4549,-6.4548,-6.4586,-6.458,-6.4583,-6.4582,-6.4608,-6.4606,-6.4691,-6.4703,-6.4625,-6.4626,-6.4626,0,-6.4396,-6.4418,-6.4434,-6.4448,-6.4456,-6.4478,-6.4491,-6.449,-6.4503,-6.452,-6.4537,-6.4558,-6.4575,-6.4611,-6.4615,-6.4634,-6.4629,-6.4658,-6.4632,-6.4634,-6.4631,-6.463,-6.4633,-6.4663,-6.4664,-6.4664,-6.4665,0,-6.4455,-6.4457,-6.4476,-6.4498,-6.4515,-6.4531,-6.4546,-6.4557,-6.4558,-6.4574,-6.4598,-6.4611,-6.4638,-6.4659,-6.4678,-6.4684,-6.4675,-6.4674,-6.4681,-6.4683,-6.4684,-6.4685,-6.4597,-6.4671,-6.4671,-6.467,-6.467,-6.467,-6.4497,-6.4517,-6.4533,-6.4556,-6.4568,-6.4584,-6.4602,-6.4609,-6.4629,-6.4652,-6.465,-6.4676,-6.469,-6.4714,-6.4723,-6.4743,-6.4733,-6.4743,-6.4746,-6.4748,-6.4752,-6.4681,-6.4746,-6.4746,-6.4746,-6.4746,-6.4746,0,-6.4556,-6.4567,-6.4589,-6.4612,-6.4631,-6.4623,-6.464,-6.4656,-6.4681,-6.4695,-6.4713,-6.4741,-6.4763,-6.4771,-6.4792,-6.4807,-6.4804,-6.4813,-6.4812,-6.4814,-6.4759,-6.4752,-6.4816,-6.4816,-6.4816,-6.4816,-6.4816,-6.4816,-6.4589,-6.4623,-6.4627,-6.4668,-6.4677,-6.4705,-6.4716,-6.4731,-6.4742,-6.4775,-6.4794,-6.48,-6.4812,-6.4834,-6.4854,-6.4856,-6.4865,-6.4876,-6.4876,-6.4824,-6.4817,-6.4811,-6.4803,-6.4878,-6.4878,-6.4929,-6.4929,-6.493]}]]